This is the latest recevied weather packets stored in our database for station/object JE3XST-13. If no packets are shown the sender has not sent any weather packets the latest 10 day(s).
| Time | Temp. | Humidity | Pressure | Rain* | Wind** | Luminosity | Snow |
|---|---|---|---|---|---|---|---|
| 1777431207 | 17.78° C | 63% | 1015.4 hPa | 0 mm | - | - | - |
| 1777429408 | 18.33° C | 63% | 1015.6 hPa | 0 mm | - | - | - |
| 1777427608 | 18.33° C | 63% | 1015.4 hPa | 0 mm | - | - | - |
| 1777425807 | 17.78° C | 62% | 1015.5 hPa | 0 mm | - | - | - |
| 1777424007 | 18.33° C | 60% | 1015.4 hPa | 0 mm | - | - | - |
| 1777422207 | 18.33° C | 59% | 1015.1 hPa | 0 mm | - | - | - |
| 1777420407 | 18.89° C | 57% | 1015 hPa | 0 mm | - | - | - |
| 1777418607 | 17.78° C | 59% | 1014.7 hPa | 0 mm | - | - | - |
| 1777416806 | 17.78° C | 57% | 1014.5 hPa | 0 mm | - | - | - |
| 1777415008 | 17.22° C | 56% | 1014.3 hPa | 0 mm | - | - | - |
| 1777413208 | 16.67° C | 58% | 1014.1 hPa | 0 mm | - | - | - |
| 1777411408 | 16.67° C | 61% | 1013.4 hPa | 0 mm | - | - | - |
| 1777409608 | 16.67° C | 61% | 1013.1 hPa | 0 mm | - | - | - |
| 1777407807 | 16.67° C | 65% | 1013 hPa | 0 mm | - | - | - |
| 1777406007 | 16.67° C | 63% | 1012.3 hPa | 0 mm | - | - | - |
| 1777404207 | 17.22° C | 62% | 1012.2 hPa | 0 mm | - | - | - |
| 1777402407 | 17.22° C | 64% | 1012.3 hPa | 0 mm | - | - | - |
| 1777400606 | 17.22° C | 65% | 1012.1 hPa | 0 mm | - | - | - |
| 1777398806 | 17.22° C | 69% | 1012.2 hPa | 0 mm | - | - | - |
| 1777397008 | 17.22° C | 69% | 1012.4 hPa | 0 mm | - | - | - |
| 1777395207 | 17.78° C | 70% | 1012.7 hPa | 0 mm | - | - | - |
| 1777393407 | 17.78° C | 73% | 1012.9 hPa | 0 mm | - | - | - |
| 1777391606 | 17.78° C | 75% | 1012.7 hPa | 0 mm | - | - | - |
| 1777389807 | 18.33° C | 74% | 1012.8 hPa | 0 mm | - | - | - |
| 1777388007 | 18.33° C | 72% | 1012.8 hPa | 0 mm | - | - | - |
* Rain latest hour (hover to see other rain measurements)
** Current wind speed in m/s (hover to see current wind gust speed)